Location: Houcks Corners
(42.5956°N, 73.8346°W)
Time: 20:16:11
(UTC+00:00)

Daily predictions for brighter satellites

Satellite Brightness Start Highest point End
(mag) Time Altitude Azimuth Time Altitude Azimuth Time Altitude Azimuth
BREEZE-M DEB (TANK) 4.1 21:45:35 10° W 21:49:11 64° NNW 22:00:52 10° ENE
CZ-4C R/B 3.1 21:52:48 10° NNE 21:56:26 89° NW 22:00:04 10° SSW
Cosmos 1814 Rocket 4.2 21:53:57 10° SSW 21:59:18 79° WNW 22:04:39 10° NNE
Cosmos 405 3.0 21:55:59 10° S 21:59:28 85° W 22:02:58 10° N
Cosmos 389 Rocket 4.1 21:57:33 10° SE 21:59:44 16° E 22:01:55 10° NE
Nadezhda 1 Rocket 4.2 21:53:38 10° SSE 21:59:46 56° E 22:06:00 10° NNE
SMAP 3.2 21:55:49 10° SSE 22:00:19 51° ENE 22:04:51 10° N
Cosmos 1606 4.0 22:00:12 10° SE 22:03:13 22° E 22:06:14 10° NE
Cosmos 1943 Rocket 3.9 22:08:39 10° NNE 22:10:45 12° NE 22:12:39 10° ENE
Cosmos 2292 4.5 22:08:07 10° SSE 22:11:01 47° E 22:14:19 10° NNE
SL-16 R/B 3.5 22:08:08 10° SE 22:12:00 19° E 22:15:41 11° ENE
PAYLOAD B 4.4 22:07:16 10° SSE 22:12:52 80° WSW 22:18:28 10° NNW
Cosmos 2154 Rocket 4.0 22:07:04 10° N 22:13:23 66° E 22:19:41 10° SSE
H-2A R/B 2.2 22:13:32 10° N 22:17:42 77° WNW 22:21:55 10° SSW
Cosmos 1610 Rocket 4.5 22:11:51 10° N 22:18:13 73° E 22:24:27 10° SSE
Cosmos 1862 3.2 22:14:46 10° N 22:18:50 79° E 22:22:50 10° S
Landsat 5 4.3 22:14:47 10° N 22:19:04 57° WNW 22:23:26 10° SSW
Lacrosse 5 rocket 3.3 22:19:11 10° ESE 22:19:17 10° ESE 22:19:23 10° ESE
Cosmos 2341 Rocket 4.4 22:15:07 10° N 22:21:01 41° ENE 22:26:55 10° SE
ATLAS 5 CENTAUR R/B 4.0 22:15:53 10° NW 22:21:23 40° WSW 22:27:37 10° S
Abrixas rocket 1.7 22:19:51 10° WNW 22:22:36 63° NNE 22:24:47 15° ESE
CZ-2C R/B 4.2 22:19:38 10° ESE 22:23:17 20° ENE 22:26:49 10° NNE
Cosmos 1867 4.3 22:20:50 10° S 22:25:38 33° ESE 22:29:38 14° NE
CZ-4 R/B 2.9 22:25:58 16° ENE 22:25:58 16° ENE 22:28:19 10° NNE
Cosmos 2333 Rocket 3.6 22:20:48 10° WSW 22:26:02 37° WNW 22:31:17 10° N
USA 281 3.8 22:21:11 10° ESE 22:26:57 34° NE 22:32:43 10° N
Cosmos 1633 Rocket 4.1 22:24:50 10° NNE 22:28:21 23° ENE 22:31:51 10° SE
NOSS 0 Rocket 4.0 22:22:34 10° SSW 22:28:49 86° WNW 22:35:07 10° NNE
Cosmos 1689 Rocket 3.8 22:29:44 16° ESE 22:29:44 16° ESE 22:31:17 10° SE
CZ-2D R/B 4.3 22:28:10 10° ESE 22:31:14 24° ENE 22:34:20 10° NNE
COSMOS 2428 3.9 22:25:51 10° SW 22:31:17 43° WNW 22:36:45 10° NNE
Cosmos 2298 Rocket 4.2 22:27:53 10° NNW 22:33:12 81° WSW 22:38:30 10° SSE
Cosmos 1356 4.0 22:30:07 10° N 22:33:15 32° ENE 22:36:22 10° SE
Cosmos 1818 3.5 22:29:10 10° NNW 22:34:38 72° NE 22:40:05 10° SE
Cosmos 2150 Rocket 4.0 22:29:46 10° NNW 22:34:57 84° WSW 22:40:05 10° SSE
ISS -3.5 22:32:33 10° WSW 22:35:53 66° NNW 22:37:58 21° NE
ERS-2 2.1 22:35:24 10° NNE 22:39:03 62° ESE 22:42:40 10° S
Cosmos 1939 Rocket 3.1 22:36:08 10° SE 22:39:46 42° ENE 22:43:27 10° N
Cosmos 2278 Rocket 2.4 22:36:01 10° NNW 22:41:43 79° WSW 22:47:22 10° SSE
Cosmos 2221 4.4 22:37:58 10° SW 22:41:53 32° WNW 22:45:48 10° N
CZ-4B R/B 1.0 22:39:44 10° NNE 22:42:48 82° E 22:45:53 10° S
SL-8 Rocket 4.1 22:42:10 10° N 22:48:12 50° ENE 22:54:15 10° SSE
BREEZE-M DEB (TANK) 4.3 22:47:17 10° S 22:49:02 12° SSE 22:49:52 12° SE
Cosmos 44 4.5 22:44:57 10° NNW 22:49:25 27° NE 22:50:50 24° ENE
GENESIS II 4.1 22:46:21 10° NNW 22:50:17 62° NE 22:53:40 13° SE
TELKOM 3 3.1 22:47:34 10° WSW 22:50:18 71° NNW 22:50:44 52° NE
Cosmos 2181 Rocket 4.2 22:44:21 10° SSE 22:50:34 53° E 22:56:45 10° NNE
Meteor 1-25 Rocket 4.5 22:45:16 10° N 22:50:36 43° ENE 22:55:57 10° SE
Cosmos 1125 Rocket 3.5 22:46:50 10° NNW 22:52:03 85° WSW 22:57:16 10° SSE
IRS-1C Rocket 4.1 22:48:22 10° SSE 22:53:31 57° ENE 22:58:42 10° N
YAOGAN 1 3.3 22:55:22 29° ENE 22:55:22 29° ENE 22:59:03 10° N
USA 215 3.4 22:54:19 17° NE 22:59:36 73° NW 23:06:06 10° WSW
YAOGAN 3 4.4 22:55:49 10° SSE 23:00:10 80° ENE 23:04:33 10° N
Cosmos 2219 Rocket 4.2 22:56:02 10° WSW 23:00:30 23° NW 23:04:57 10° N
CZ-4B R/B 4.5 22:56:32 10° S 23:01:36 42° W 23:06:38 10° NNW
Okean-O 2.9 22:58:01 10° SE 23:02:10 41° ENE 23:06:20 10° N
Meteor 2-12 Rocket 4.5 22:57:40 10° N 23:03:51 85° W 23:09:59 10° S
COSMO-SKYMED 1 2.4 23:02:53 10° NNE 23:07:15 84° ESE 23:11:35 10° SSW
Cosmos 2237 Rocket 2.9 23:02:49 10° SW 23:08:18 54° WNW 23:13:51 10° NNE
EO 1 Delta rocket 4.3 23:05:42 10° NNE 23:10:58 65° E 23:17:34 10° S
CZ-4 R/B 4.3 23:09:39 10° SSE 23:13:47 77° ENE 23:17:56 10° N
Okean O Rocket 3.7 23:11:14 10° SSW 23:14:59 28° W 23:18:46 10° NW
SL-24 R/B 3.7 23:13:00 19° NNE 23:15:53 85° ESE 23:19:38 10° SSW
Cosmos 1933 3.2 23:12:25 10° S 23:16:27 88° WNW 23:19:06 21° N
USA 81 3.9 23:14:17 10° N 23:19:36 83° E 23:24:53 10° S
Sich 1 3.9 23:15:27 10° NNW 23:19:43 50° W 23:23:55 10° SSW
PSLV R/B 3.7 23:20:05 35° NNE 23:21:46 86° ESE 23:25:48 10° SSW
CSL-04 Rocket 4.1 23:23:40 38° NE 23:23:40 38° NE 23:27:53 10° N
Cosmos 2369 Rocket 3.6 23:19:09 10° N 23:22:06 22° NNE 23:22:06 22° NNE
H-2A R/B 2.2 23:25:29 46° E 23:26:03 48° ENE 23:31:05 10° N
Helios 1A Rocket 2.7 23:25:30 10° SSE 23:29:31 81° ENE 23:33:34 10° NNW
USA 267 3.1 23:27:58 31° ESE 23:31:22 78° NE 23:37:53 10° NW
Cosmos 2218 Rocket 3.9 23:26:14 10° N 23:32:25 90° WNW 23:38:34 10° S
Cosmos 1666 Rocket 4.2 23:30:35 10° NNW 23:34:53 55° W 23:39:12 10° S
Cosmos 1151 Rocket 3.2 23:31:12 10° SSW 23:35:29 69° W 23:37:28 31° N
Cosmos 773 Rocket 3.9 23:31:11 10° S 23:36:22 72° ESE 23:37:15 59° NE
Cosmos 1782 4.2 23:33:19 10° S 23:35:12 27° S 23:35:12 27° S
Cosmos 1328 Rocket 3.6 23:34:46 10° SSW 23:39:03 73° W 23:40:17 45° N
Meteor 1-14 Rocket 4.2 23:38:29 10° N 23:44:24 67° ENE 23:46:47 37° SSE
Cosmos 2366 rocket 4.1 23:38:21 10° N 23:44:34 76° W 23:50:41 10° S
SL-24 DEB 4.5 23:40:31 10° N 23:45:17 71° W 23:49:58 10° SSW
Cosmos 2297 3.6 23:42:18 10° NNW 23:48:01 85° WSW 23:50:36 34° SSE
BREEZE-M DEB (TANK) 3.6 23:40:01 10° SW 23:48:28 57° SSE 23:48:28 57° SSE
MOS 1 Rocket 3.7 23:51:26 31° N 23:54:07 78° WNW 23:59:32 10° SSW
